IK5WWP Weather Reports


Display with metric or nautical units.
time (UTC)temp
F
wind
direction
speed
MPH
gust
MPH
rain 1hr
in
rain 24hr
in
rain mn
in
humidity
%
barometer
mb
20260510043907 61 84 0.0 2.0 0.00 0.00 0.00 86 1012.4
20260510043007 61 55 0.0 2.0 0.00 0.00 0.00 86 1012.1
20260510042108 60 12 0.0 2.0 0.00 0.00 0.00 87 1012.5
20260510041208 60 322 0.0 2.0 0.00 0.00 0.00 87 1012.5
20260510035408 60 106 0.0 2.0 0.00 0.00 0.00 87 1012.6
20260510034508 60 45 0.0 2.0 0.00 0.00 0.00 86 1012.9
20260510033609 60 57 0.0 4.0 0.00 0.00 0.00 87 1012.5
20260510032708 61 111 0.0 2.0 0.00 0.00 0.00 87 1012.4
20260510031808 61 96 1.0 2.0 0.00 0.00 0.00 86 1012.2
20260510030908 62 45 0.0 2.0 0.00 0.00 0.00 84 1011.4
20260510030008 61 45 1.0 2.0 0.00 0.00 0.00 85 1011.4
20260510025108 61 90 0.0 2.0 0.00 0.00 0.00 84 1011.9
20260510024208 61 68 0.0 2.0 0.00 0.00 0.00 84 1011.9
20260510022409 61 68 0.0 2.0 0.00 0.00 0.00 84 1012.3
20260510021509 61 68 0.0 2.0 0.00 0.00 0.00 84 1012.3
20260510020608 61 68 0.0 2.0 0.00 0.00 0.00 83 1012.3
20260510015708 62 68 0.0 2.0 0.00 0.00 0.00 83 1012.5
20260510013910 62 45 0.0 2.0 0.00 0.00 0.00 82 1013.1
20260510013008 61 54 0.0 2.0 0.00 0.00 0.00 83 1013.0
20260510012109 61 42 0.0 2.0 0.00 0.00 0.00 84 1013.3
20260510011208 62 49 0.0 2.0 0.00 0.00 0.00 83 1013.1
20260510010308 62 46 0.0 2.0 0.00 0.00 0.00 82 1013.1
20260510004509 61 45 0.0 2.0 0.00 0.00 0.00 81 1013.0
20260510003608 61 45 1.0 2.0 0.00 0.00 0.00 82 1013.4
20260510000910 60 68 0.0 2.0 0.00 0.00 0.00 83 1013.4
20260510000009 60 0 0.0 0.0 0.00 0.00 0.00 83 1013.6
20260509234208 61 43 0.0 2.0 0.00 0.00 0.00 82 1013.6
20260509233308 61 45 0.0 2.0 0.00 0.00 0.00 82 1013.6
20260509231513 60 0 0.0 0.0 0.00 0.00 0.00 83 1013.4
20260509230609 61 0 0.0 0.0 0.00 0.00 0.00 82 1013.6
20260509225709 61 45 0.0 2.0 0.00 0.00 0.00 81 1013.5
20260509224810 61 45 0.0 2.0 0.00 0.00 0.00 80 1013.5
20260509223909 62 45 1.0 2.0 0.00 0.00 0.00 80 1013.4
20260509223023 62 45 1.0 2.0 0.00 0.00 0.00 79 1013.5
20260509222113 62 46 0.0 2.0 0.00 0.00 0.00 80 1013.6
20260509221209 62 45 0.0 2.0 0.00 0.00 0.00 80 1013.4
20260509215535 62 91 0.0 2.0 0.00 0.00 0.00 80 1013.3
20260509214635 62 103 2.0 2.0 0.00 0.00 0.00 79 1012.9
20260509213735 63 45 0.0 2.0 0.00 0.00 0.00 79 1012.9
20260509212835 62 46 0.0 2.0 0.00 0.00 0.00 80 1013.2
20260509211935 62 68 0.0 2.0 0.00 0.00 0.00 80 1013.4
20260509211035 63 45 0.0 2.0 0.00 0.00 0.00 79 1013.4
20260509205235 63 68 0.0 2.0 0.00 0.00 0.00 80 1013.5